TRA9J EGSS-EHRD

Flight info

Callsign TRA9J
Flight time 0h 37m
Altitude 19000
Route CLN P44 RATLO M197 REDFA
Aircraft B738/M-SDE2E3FGHIJ1RWXYZ/LB1

Departure

Time 2026-05-05 18:11
Airport London Stansted Airport (EGSS)

Arrival

Time 2026-05-05 18:48
Airport Rotterdam The Hague Airport (EHRD)
Time Latitude Longitude Altitude Speed Heading
2026-05-05 17:42 51.89065 0.25236 339 ft 0 kts 159°
2026-05-05 17:57 51.89077 0.25229 336 ft 4 kts 159°
2026-05-05 17:57 51.89099 0.25215 351 ft 4 kts 162°
2026-05-05 17:57 51.89124 0.25210 352 ft 4 kts 194°
2026-05-05 17:57 51.89146 0.25228 349 ft 3 kts 222°
2026-05-05 17:58 51.89148 0.25231 354 ft 3 kts 223°
2026-05-05 18:01 51.89143 0.25223 346 ft 3 kts 222°
2026-05-05 18:01 51.89101 0.25163 345 ft 12 kts 221°
2026-05-05 18:02 51.89016 0.25039 342 ft 20 kts 223°
2026-05-05 18:02 51.88897 0.24858 347 ft 26 kts 223°
2026-05-05 18:02 51.88758 0.24649 343 ft 28 kts 222°
2026-05-05 18:02 51.88620 0.24444 342 ft 26 kts 222°
2026-05-05 18:03 51.88491 0.24253 347 ft 24 kts 221°
2026-05-05 18:03 51.88375 0.24069 338 ft 23 kts 224°
2026-05-05 18:03 51.88257 0.23902 337 ft 22 kts 221°
2026-05-05 18:03 51.88145 0.23735 334 ft 22 kts 225°
2026-05-05 18:04 51.88040 0.23567 332 ft 21 kts 223°
2026-05-05 18:04 51.87933 0.23412 334 ft 20 kts 221°
2026-05-05 18:04 51.87829 0.23262 335 ft 20 kts 223°
2026-05-05 18:04 51.87739 0.23108 335 ft 17 kts 245°
2026-05-05 18:05 51.87755 0.22991 335 ft 9 kts 314°
2026-05-05 18:05 51.87781 0.22942 335 ft 4 kts 295°
2026-05-05 18:05 51.87779 0.22897 333 ft 5 kts 248°
2026-05-05 18:05 51.87750 0.22842 334 ft 8 kts 225°
2026-05-05 18:06 51.87695 0.22760 336 ft 13 kts 222°
2026-05-05 18:06 51.87645 0.22688 336 ft 15 kts 222°
2026-05-05 18:06 51.87523 0.22506 333 ft 20 kts 223°
2026-05-05 18:06 51.87450 0.22396 329 ft 13 kts 223°
2026-05-05 18:07 51.87404 0.22299 329 ft 8 kts 259°
2026-05-05 18:07 51.87403 0.22280 327 ft 0 kts 268°
2026-05-05 18:07 51.87403 0.22279 327 ft 1 kts 268°
2026-05-05 18:08 51.87402 0.22239 330 ft 6 kts 269°
2026-05-05 18:08 51.87420 0.22171 327 ft 2 kts 311°
2026-05-05 18:08 51.87422 0.22168 328 ft 1 kts 311°
2026-05-05 18:08 51.87430 0.22153 329 ft 3 kts 311°
2026-05-05 18:09 51.87449 0.22117 329 ft 5 kts 311°
2026-05-05 18:09 51.87474 0.22070 327 ft 6 kts 311°
2026-05-05 18:09 51.87502 0.22027 327 ft 6 kts 330°
2026-05-05 18:09 51.87538 0.22040 327 ft 6 kts 39°
2026-05-05 18:10 51.87557 0.22064 328 ft 0 kts 41°
2026-05-05 18:10 51.87564 0.22074 325 ft 4 kts 42°
2026-05-05 18:11 51.87736 0.22331 331 ft 78 kts 43°
2026-05-05 18:11 51.88364 0.23286 337 ft 163 kts 46°
2026-05-05 18:11 51.89316 0.24646 903 ft 199 kts 42°
2026-05-05 18:11 51.90391 0.26242 1764 ft 217 kts 44°
2026-05-05 18:12 51.91374 0.28113 2808 ft 224 kts 57°
2026-05-05 18:12 51.91885 0.30571 3349 ft 243 kts 84°
2026-05-05 18:12 51.91514 0.33416 3404 ft 285 kts 114°
2026-05-05 18:12 51.90539 0.36215 4194 ft 284 kts 117°
2026-05-05 18:13 51.89602 0.39171 4043 ft 292 kts 114°
2026-05-05 18:13 51.88734 0.42030 3997 ft 280 kts 115°
2026-05-05 18:13 51.87867 0.44772 3986 ft 268 kts 115°
2026-05-05 18:13 51.87040 0.47447 3989 ft 264 kts 114°
2026-05-05 18:14 51.86228 0.50118 4009 ft 265 kts 114°
2026-05-05 18:14 51.85426 0.52812 3996 ft 266 kts 113°
2026-05-05 18:14 51.84629 0.55511 3991 ft 266 kts 113°
2026-05-05 18:14 51.83834 0.58208 3994 ft 266 kts 112°
2026-05-05 18:15 51.83217 0.61025 4251 ft 266 kts 99°
2026-05-05 18:15 51.82967 0.63975 4828 ft 266 kts 90°
2026-05-05 18:15 51.83003 0.66969 4966 ft 268 kts 84°
2026-05-05 18:15 51.83132 0.69979 4966 ft 268 kts 83°
2026-05-05 18:16 51.83273 0.72973 4997 ft 268 kts 83°
2026-05-05 18:16 51.83406 0.76016 5473 ft 274 kts 84°
2026-05-05 18:16 51.83530 0.79103 5925 ft 277 kts 84°
2026-05-05 18:16 51.83650 0.82220 5962 ft 276 kts 84°
2026-05-05 18:17 51.83763 0.85304 5978 ft 274 kts 84°
2026-05-05 18:17 51.83873 0.88358 5976 ft 272 kts 84°
2026-05-05 18:17 51.83983 0.91425 5988 ft 273 kts 84°
2026-05-05 18:17 51.84092 0.94465 5992 ft 275 kts 84°
2026-05-05 18:18 51.84166 0.96555 5994 ft 275 kts 84°
2026-05-05 18:18 51.84274 0.99600 5988 ft 274 kts 84°
2026-05-05 18:18 51.84381 1.02653 5979 ft 270 kts 84°
2026-05-05 18:18 51.84488 1.05689 5991 ft 271 kts 84°
2026-05-05 18:19 51.84593 1.08734 5991 ft 272 kts 84°
2026-05-05 18:19 51.84698 1.11788 5998 ft 273 kts 84°
2026-05-05 18:19 51.84844 1.14847 5987 ft 272 kts 76°
2026-05-05 18:19 51.85484 1.17719 6258 ft 274 kts 63°
2026-05-05 18:20 51.86274 1.20532 7174 ft 273 kts 63°
2026-05-05 18:20 51.87058 1.23339 8115 ft 276 kts 64°
2026-05-05 18:20 51.87848 1.26198 8968 ft 281 kts 64°
2026-05-05 18:20 51.88649 1.29120 9819 ft 286 kts 65°
2026-05-05 18:21 51.89463 1.32108 10427 ft 299 kts 65°
2026-05-05 18:21 51.90334 1.35326 10625 ft 325 kts 65°
2026-05-05 18:21 51.91260 1.38766 11065 ft 340 kts 66°
2026-05-05 18:21 51.92210 1.42313 11783 ft 346 kts 65°
2026-05-05 18:22 51.93171 1.45908 12564 ft 350 kts 66°
2026-05-05 18:22 51.94139 1.49537 13367 ft 353 kts 66°
2026-05-05 18:22 51.95121 1.53220 14074 ft 358 kts 66°
2026-05-05 18:22 51.96112 1.56939 14833 ft 360 kts 66°
2026-05-05 18:23 51.97101 1.60660 15690 ft 358 kts 66°
2026-05-05 18:23 51.98082 1.64354 16618 ft 355 kts 67°
2026-05-05 18:23 51.99042 1.68023 17556 ft 351 kts 69°
2026-05-05 18:23 51.99777 1.71784 18418 ft 350 kts 75°
2026-05-05 18:24 52.00379 1.75601 18786 ft 348 kts 76°
2026-05-05 18:24 52.00949 1.79437 18946 ft 354 kts 77°
2026-05-05 18:24 52.01528 1.83341 18942 ft 355 kts 76°
2026-05-05 18:24 52.02108 1.87212 18945 ft 351 kts 76°
2026-05-05 18:25 52.02692 1.91051 18951 ft 349 kts 76°
2026-05-05 18:25 52.03072 1.93576 18951 ft 347 kts 77°
2026-05-05 18:25 52.03846 1.98687 18949 ft 351 kts 77°
2026-05-05 18:25 52.04433 2.02512 18957 ft 355 kts 76°
2026-05-05 18:26 52.05033 2.06406 18952 ft 355 kts 76°
2026-05-05 18:26 52.05630 2.10284 18945 ft 353 kts 76°
2026-05-05 18:26 52.06233 2.14201 18946 ft 352 kts 76°
2026-05-05 18:26 52.06825 2.18058 18941 ft 352 kts 76°
2026-05-05 18:27 52.07403 2.21831 18932 ft 343 kts 76°
2026-05-05 18:27 52.07969 2.25532 18929 ft 332 kts 76°
2026-05-05 18:27 52.08521 2.29153 18934 ft 328 kts 77°
2026-05-05 18:27 52.09062 2.32698 18928 ft 318 kts 77°
2026-05-05 18:28 52.10080 2.39399 18922 ft 292 kts 77°
2026-05-05 18:28 52.10552 2.42531 18921 ft 279 kts 77°
2026-05-05 18:28 52.11006 2.45557 18754 ft 274 kts 77°
2026-05-05 18:29 52.11317 2.48674 18001 ft 289 kts 94°
2026-05-05 18:29 52.10743 2.51953 16859 ft 316 kts 115°
2026-05-05 18:29 52.09811 2.55233 16326 ft 322 kts 116°
2026-05-05 18:29 52.08857 2.58522 15922 ft 322 kts 116°
2026-05-05 18:30 52.07907 2.61804 15582 ft 320 kts 116°
2026-05-05 18:30 52.06969 2.65070 15236 ft 318 kts 115°
2026-05-05 18:30 52.06039 2.68330 14907 ft 317 kts 115°
2026-05-05 18:30 52.05122 2.71564 14579 ft 315 kts 115°
2026-05-05 18:31 52.04210 2.74789 14252 ft 313 kts 115°
2026-05-05 18:31 52.03317 2.77950 13937 ft 312 kts 115°
2026-05-05 18:31 52.02415 2.81142 13609 ft 310 kts 115°
2026-05-05 18:31 52.01518 2.84318 13250 ft 309 kts 115°
2026-05-05 18:32 52.00625 2.87476 12921 ft 306 kts 115°
2026-05-05 18:32 51.99741 2.90599 12606 ft 304 kts 115°
2026-05-05 18:32 51.98861 2.93706 12284 ft 302 kts 114°
2026-05-05 18:32 51.97989 2.96779 11973 ft 299 kts 114°
2026-05-05 18:33 51.97120 2.99842 11662 ft 297 kts 114°
2026-05-05 18:33 51.96257 3.02876 11360 ft 295 kts 114°
2026-05-05 18:33 51.95400 3.05889 11046 ft 293 kts 114°
2026-05-05 18:33 51.94546 3.08885 10746 ft 292 kts 113°
2026-05-05 18:34 51.93699 3.11859 10440 ft 290 kts 114°
2026-05-05 18:34 51.93164 3.14975 10181 ft 287 kts 95°
2026-05-05 18:34 51.92979 3.18184 9959 ft 287 kts 92°
2026-05-05 18:34 51.92825 3.21413 9713 ft 287 kts 94°
2026-05-05 18:35 51.92668 3.24610 9440 ft 283 kts 93°
2026-05-05 18:35 51.92502 3.27771 9183 ft 280 kts 94°
2026-05-05 18:35 51.92329 3.30896 8911 ft 277 kts 94°
2026-05-05 18:35 51.92151 3.33990 8638 ft 276 kts 94°
2026-05-05 18:36 51.91969 3.37087 8374 ft 275 kts 94°
2026-05-05 18:36 51.91783 3.40153 8121 ft 272 kts 94°
2026-05-05 18:36 51.91598 3.43184 7867 ft 269 kts 95°
2026-05-05 18:36 51.91411 3.46184 7612 ft 267 kts 95°
2026-05-05 18:37 51.91224 3.49154 7366 ft 264 kts 94°
2026-05-05 18:37 51.91037 3.52106 7109 ft 262 kts 95°
2026-05-05 18:37 51.90851 3.55021 6862 ft 260 kts 95°
2026-05-05 18:37 51.90669 3.57884 6618 ft 258 kts 94°
2026-05-05 18:38 51.90482 3.60795 6369 ft 255 kts 94°
2026-05-05 18:38 51.90298 3.63636 6111 ft 253 kts 92°
2026-05-05 18:38 51.90117 3.66428 5852 ft 251 kts 94°
2026-05-05 18:38 51.89933 3.69260 5598 ft 249 kts 94°
2026-05-05 18:39 51.89753 3.72004 5338 ft 247 kts 92°
2026-05-05 18:39 51.89572 3.74748 5114 ft 244 kts 91°
2026-05-05 18:39 51.89394 3.77474 4848 ft 242 kts 91°
2026-05-05 18:39 51.89216 3.80176 4593 ft 241 kts 91°
2026-05-05 18:40 51.89038 3.82854 4337 ft 239 kts 92°
2026-05-05 18:40 51.88861 3.85515 4077 ft 237 kts 92°
2026-05-05 18:40 51.88684 3.88159 3821 ft 236 kts 91°
2026-05-05 18:40 51.88508 3.90788 3558 ft 235 kts 94°
2026-05-05 18:41 51.88332 3.93407 3307 ft 232 kts 94°
2026-05-05 18:41 51.88160 3.95976 3034 ft 227 kts 93°
2026-05-05 18:41 51.87991 3.98475 2768 ft 221 kts 93°
2026-05-05 18:41 51.87825 4.00923 2515 ft 216 kts 93°
2026-05-05 18:42 51.87663 4.03320 2251 ft 213 kts 92°
2026-05-05 18:42 51.87503 4.05689 2037 ft 207 kts 92°
2026-05-05 18:42 51.87350 4.07929 1979 ft 193 kts 92°
2026-05-05 18:42 51.87208 4.09986 1983 ft 177 kts 92°
2026-05-05 18:43 51.87074 4.11947 1986 ft 173 kts 92°
2026-05-05 18:43 51.86940 4.13898 1993 ft 177 kts 91°
2026-05-05 18:43 51.86804 4.15873 1973 ft 176 kts 92°
2026-05-05 18:43 51.86668 4.17832 1974 ft 176 kts 92°
2026-05-05 18:44 51.86534 4.19792 1967 ft 174 kts 90°
2026-05-05 18:44 51.86787 4.21575 1952 ft 154 kts 51°
2026-05-05 18:44 51.87354 4.22938 1953 ft 142 kts 59°
2026-05-05 18:44 51.87854 4.24349 1998 ft 148 kts 56°
2026-05-05 18:45 51.88419 4.25757 1975 ft 150 kts 55°
2026-05-05 18:45 51.88977 4.27154 1978 ft 145 kts 54°
2026-05-05 18:45 51.89520 4.28519 1954 ft 143 kts 54°
2026-05-05 18:45 51.90061 4.29880 1913 ft 147 kts 56°
2026-05-05 18:46 51.90601 4.31242 1758 ft 138 kts 55°
2026-05-05 18:46 51.91099 4.32494 1565 ft 133 kts 53°
2026-05-05 18:46 51.91607 4.33764 1384 ft 135 kts 53°
2026-05-05 18:46 51.92121 4.35059 1205 ft 137 kts 54°
2026-05-05 18:47 51.92651 4.36358 1030 ft 138 kts 53°
2026-05-05 18:47 51.93168 4.37649 891 ft 137 kts 54°
2026-05-05 18:47 51.93676 4.38963 655 ft 139 kts 53°
2026-05-05 18:47 51.94186 4.40260 435 ft 133 kts 53°
2026-05-05 18:48 51.94672 4.41488 256 ft 127 kts 53°
2026-05-05 18:48 51.95154 4.42686 57 ft 122 kts 51°
2026-05-05 18:48 51.95600 4.43773 0 ft 107 kts 54°
2026-05-05 18:48 51.95882 4.44493 -3 ft 46 kts 58°
2026-05-05 18:49 51.95977 4.44728 -2 ft 20 kts 54°
2026-05-05 18:49 51.96058 4.44925 0 ft 21 kts 56°
2026-05-05 18:49 51.96140 4.45121 1 ft 21 kts 58°
2026-05-05 18:49 51.96135 4.45334 1 ft 20 kts 123°
2026-05-05 18:50 51.96023 4.45356 0 ft 19 kts 230°
2026-05-05 18:50 51.95952 4.45177 0 ft 19 kts 239°
2026-05-05 18:50 51.95880 4.45008 0 ft 18 kts 234°
2026-05-05 18:50 51.95813 4.44840 0 ft 17 kts 238°
2026-05-05 18:51 51.95752 4.44677 0 ft 17 kts 239°
2026-05-05 18:51 51.95691 4.44523 0 ft 16 kts 243°
2026-05-05 18:51 51.95628 4.44375 0 ft 15 kts 234°
2026-05-05 18:51 51.95570 4.44234 0 ft 15 kts 237°
2026-05-05 18:52 51.95515 4.44096 0 ft 14 kts 238°
2026-05-05 18:52 51.95465 4.43962 0 ft 14 kts 239°
2026-05-05 18:52 51.95417 4.43835 0 ft 13 kts 236°
2026-05-05 18:52 51.95367 4.43715 0 ft 13 kts 236°
2026-05-05 18:53 51.95322 4.43596 0 ft 12 kts 239°
2026-05-05 18:53 51.95277 4.43483 0 ft 11 kts 235°
2026-05-05 18:53 51.95215 4.43472 0 ft 10 kts 143°
2026-05-05 18:53 51.95158 4.43474 1 ft 8 kts 221°
2026-05-05 18:54 51.95134 4.43402 0 ft 7 kts 270°
2026-05-05 18:54 51.95157 4.43359 0 ft 2 kts 324°
2026-05-05 18:54 51.95166 4.43350 0 ft 0 kts 326°